QPF
0.01 0.02 0.01 0.00 0.00 0.00 0.00 0.01 0.01 0.01 0.00 0.01 0.01 0.00 0.00 0.00 0.01 0.00 0.00 0.00 0.00 0.00 0.00 0.00 0.00 0.00 0.00 0.00 0.00 0.00 0.00 0.00 0.00 0.00 0.00 0.00 0.00 0.00 0.00 0.00 0.00 0.00 0.00 0.00
0.00 0.00 0.00 0.00 0.00 0.00 0.00 0.00 0.00 0.00 0.00 0.00 0.00 0.00 0.01 0.01 0.01 0.01 0.00 0.00 0.00 0.00 0.00 0.00 0.00 0.00 0.00 0.00 0.00 0.00 0.00 0.00 0.00 0.00 0.00 0.00 0.00 0.00 0.00 0.00 0.00 0.00 0.00 0.00
0.01 0.00 0.00 0.00 0.00 0.00 0.00 0.00 0.00 0.00 0.00 0.00 0.00 0.01 0.01 0.00 0.01 0.01 0.00 0.00 0.00 0.00 0.00 0.00 0.00 0.00 0.00 0.00 0.00 0.00 0.00 0.00 0.00 0.00 0.00 0.00 0.00 0.00 0.00 0.00 0.00 0.00 0.00 0.00
0.01 0.01 0.01 0.00 0.00 0.00 0.00 0.00 0.00 0.00 0.00 0.00 0.00 0.00 0.00 0.00 0.00 0.00 0.00 0.00 0.00 0.00 0.00 0.00 0.00 0.00 0.00 0.00 0.00 0.00 0.00 0.00 0.00 0.00 0.00 0.00 0.00 0.00 0.00 0.00 0.01 0.00 0.00 0.00
0.01 0.01 0.00 0.00 0.00 0.00 0.00 0.00 0.00 0.00 0.00 0.00 0.00 0.00 0.00 0.00 0.00 0.00 0.00 0.00 0.00 0.00 0.00 0.00 0.00 0.01 0.01 0.00 0.00 0.00 0.00 0.00 0.00 0.00 0.00 0.00 0.00 0.00 0.00 0.00 0.01 0.00 0.00 0.00
0.01 0.01 0.01 0.00 0.00 0.00 0.00 0.01 0.00 0.00 0.00 0.00 0.00 0.00 0.00 0.00 0.00 0.00 0.00 0.00 0.00 0.01 0.01 0.01 0.00 0.00 0.00 0.00 0.00 0.00 0.00 0.00 0.01 0.01 0.01 0.01 0.00 0.00 0.00 0.00 0.00 0.00 0.00 0.00
0.00 0.01 0.01 0.00 0.00 0.00 0.00 0.00 0.01 0.01 0.00 0.00 0.00 0.00 0.00 0.00 0.00 0.00 0.00 0.00 0.00 0.01 0.02 0.01 0.00 0.00 0.00 0.00 0.00 0.00 0.00 0.00 0.01 0.02 0.02 0.01 0.00 0.00 0.00 0.00 0.00 0.00 0.00 0.00
0.00 0.01 0.01 0.00 0.00 0.00 0.00 0.00 0.00 0.00 0.01 0.01 0.00 0.00 0.01 0.01 0.00 0.00 0.00 0.00 0.00 0.01 0.01 0.01 0.01 0.01 0.01 0.01 0.01 0.00 0.00 0.00 0.00 0.00 0.01 0.00 0.00 0.00 0.00 0.00 0.00 0.00 0.00 0.00
0.00 0.01 0.00 0.00 0.00 0.00 0.00 0.00 0.00 0.00 0.00 0.00 0.00 0.01 0.01 0.00 0.00 0.00 0.00 0.00 0.00 0.00 0.01 0.01 0.02 0.03 0.03 0.03 0.03 0.01 0.00 0.00 0.00 0.00 0.00 0.00 0.00 0.00 0.00 0.00 0.00 0.00 0.00 0.00
0.00 0.00 0.00 0.00 0.00 0.00 0.00 0.00 0.00 0.00 0.00 0.00 0.00 0.00 0.00 0.00 0.00 0.00 0.00 0.00 0.00 0.00 0.01 0.01 0.01 0.02 0.03 0.04 0.04 0.02 0.00 0.00 0.00 0.00 0.00 0.00 0.00 0.00 0.00 0.00 0.00 0.00 0.00 0.00
0.00 0.00 0.00 0.00 0.00 0.00 0.00 0.00 0.00 0.00 0.00 0.00 0.00 0.00 0.00 0.00 0.00 0.00 0.00 0.00 0.00 0.00 0.00 0.00 0.00 0.00 0.01 0.02 0.04 0.03 0.01 0.00 0.00 0.00 0.01 0.00 0.00 0.00 0.00 0.00 0.00 0.00 0.00 0.00
0.00 0.00 0.00 0.00 0.00 0.00 0.00 0.00 0.00 0.00 0.00 0.00 0.00 0.00 0.00 0.00 0.00 0.00 0.00 0.00 0.00 0.00 0.00 0.00 0.00 0.00 0.00 0.00 0.01 0.01 0.01 0.00 0.00 0.00 0.01 0.01 0.01 0.01 0.00 0.00 0.00 0.00 0.00 0.00
0.00 0.00 0.00 0.00 0.00 0.00 0.00 0.00 0.00 0.00 0.00 0.00 0.00 0.00 0.00 0.00 0.00 0.00 0.00 0.00 0.00 0.00 0.00 0.00 0.00 0.00 0.00 0.00 0.00 0.00 0.00 0.00 0.00 0.00 0.00 0.00 0.00 0.00 0.00 0.00 0.00 0.00 0.00 0.00
0.00 0.00 0.00 0.00 0.00 0.00 0.00 0.00 0.00 0.00 0.00 0.00 0.00 0.00 0.00 0.00 0.00 0.00 0.00 0.00 0.00 0.00 0.00 0.00 0.00 0.00 0.00 0.00 0.00 0.00 0.00 0.00 0.00 0.00 0.00 0.00 0.00 0.00 0.00 0.00 0.00 0.00 0.00 0.00
0.00 0.00 0.00 0.00 0.00 0.00 0.00 0.00 0.00 0.00 0.00 0.00 0.00 0.00 0.00 0.00 0.00 0.00 0.00 0.00 0.00 0.00 0.00 0.00 0.00 0.00 0.00 0.00 0.00 0.00 0.00 0.00 0.00 0.00 0.00 0.00 0.00 0.00 0.00 0.00 0.00 0.00 0.00 0.00
0.00 0.00 0.00 0.00 0.00 0.00 0.00 0.00 0.00 0.01 0.01 0.00 0.00 0.00 0.00 0.00 0.00 0.00 0.00 0.00 0.00 0.00 0.00 0.00 0.00 0.00 0.00 0.00 0.00 0.00 0.00 0.00 0.00 0.00 0.00 0.00 0.00 0.00 0.00 0.00 0.00 0.00 0.00 0.00
0.00 0.00 0.00 0.00 0.00 0.00 0.00 0.00 0.00 0.01 0.01 0.00 0.00 0.00 0.00 0.00 0.00 0.00 0.00 0.00 0.00 0.00 0.00 0.00 0.00 0.00 0.00 0.00 0.00 0.00 0.00 0.00 0.00 0.00 0.00 0.00 0.00 0.00 0.00 0.00 0.00 0.00 0.00 0.00
0.00 0.00 0.00 0.00 0.00 0.00 0.00 0.00 0.00 0.01 0.01 0.00 0.00 0.00 0.00 0.00 0.00 0.00 0.00 0.00 0.00 0.00 0.00 0.00 0.00 0.00 0.00 0.00 0.00 0.00 0.00 0.00 0.00 0.00 0.00 0.00 0.00 0.00 0.00 0.00 0.00 0.00 0.00 0.00
0.00 0.00 0.00 0.00 0.00 0.00 0.00 0.00 0.01 0.01 0.00 0.00 0.00 0.00 0.00 0.00 0.00 0.00 0.00 0.00 0.00 0.00 0.00 0.00 0.00 0.00 0.00 0.00 0.00 0.00 0.00 0.00 0.00 0.00 0.00 0.00 0.00 0.00 0.00 0.00 0.00 0.00 0.00 0.00
0.01 0.01 0.00 0.00 0.00 0.00 0.00 0.00 0.01 0.01 0.00 0.00 0.00 0.00 0.00 0.00 0.00 0.00 0.00 0.00 0.00 0.00 0.00 0.00 0.00 0.00 0.00 0.00 0.00 0.00 0.00 0.00 0.00 0.00 0.00 0.00 0.00 0.00 0.00 0.00 0.00 0.00 0.00 0.00
0.02 0.01 0.01 0.01 0.01 0.01 0.01 0.01 0.01 0.01 0.01 0.00 0.00 0.00 0.00 0.00 0.00 0.00 0.00 0.00 0.00 0.00 0.00 0.00 0.00 0.00 0.00 0.00 0.00 0.00 0.00 0.00 0.00 0.00 0.00 0.00 0.00 0.00 0.00 0.00 0.00 0.00 0.00 0.01
0.02 0.02 0.01 0.01 0.01 0.01 0.02 0.02 0.02 0.02 0.01 0.01 0.01 0.00 0.00 0.00 0.00 0.00 0.00 0.00 0.00 0.00 0.00 0.00 0.00 0.00 0.00 0.00 0.00 0.00 0.00 0.00 0.00 0.00 0.00 0.00 0.00 0.00 0.00 0.00 0.00 0.00 0.00 0.01
0.02 0.02 0.02 0.01 0.01 0.01 0.02 0.02 0.02 0.03 0.02 0.02 0.01 0.01 0.00 0.00 0.00 0.00 0.00 0.00 0.00 0.00 0.00 0.00 0.00 0.00 0.00 0.00 0.01 0.01 0.01 0.01 0.00 0.00 0.00 0.00 0.00 0.00 0.00 0.00 0.01 0.01 0.01 0.01
0.02 0.02 0.01 0.01 0.01 0.01 0.01 0.02 0.02 0.02 0.02 0.02 0.02 0.02 0.01 0.01 0.00 0.00 0.01 0.00 0.00 0.00 0.00 0.00 0.00 0.00 0.01 0.01 0.01 0.01 0.01 0.01 0.01 0.01 0.00 0.00 0.00 0.00 0.01 0.01 0.01 0.01 0.01 0.01
0.01 0.01 0.01 0.01 0.00 0.01 0.01 0.01 0.01 0.01 0.01 0.01 0.01 0.01 0.01 0.01 0.01 0.01 0.01 0.01 0.01 0.01 0.01 0.01 0.01 0.01 0.01 0.01 0.01 0.01 0.01 0.01 0.01 0.01 0.01 0.00 0.01 0.01 0.00 0.01 0.01 0.01 0.01 0.01
0.00 0.00 0.00 0.00 0.00 0.00 0.00 0.00 0.00 0.00 0.00 0.00 0.00 0.00 0.01 0.01 0.01 0.01 0.01 0.01 0.01 0.01 0.01 0.01 0.01 0.01 0.01 0.01 0.01 0.01 0.00 0.00 0.00 0.00 0.00 0.00 0.00 0.01 0.01 0.01 0.01 0.01 0.02 0.02
0.00 0.00 0.00 0.00 0.00 0.00 0.00 0.00 0.00 0.00 0.00 0.00 0.00 0.00 0.00 0.00 0.00 0.00 0.00 0.00 0.00 0.00 0.00 0.00 0.00 0.00 0.01 0.01 0.00 0.00 0.00 0.00 0.00 0.00 0.00 0.01 0.01 0.01 0.01 0.01 0.01 0.01 0.01 0.02
MSLP
1013.44 1013.67 1013.92 1014.18 1014.41 1014.59 1014.66 1014.62 1014.43 1014.11 1013.69 1013.22 1012.77 1012.41 1012.20 1012.18 1012.36 1012.73 1013.24 1013.85 1014.49 1015.11 1015.67 1016.15 1016.56 1016.92 1017.26 1017.59 1017.94 1018.32 1018.71 1019.10 1019.46 1019.78 1020.03 1020.22 1020.35 1020.44 1020.51 1020.57 1020.65 1020.74 1020.83 1020.91
1013.78 1014.00 1014.20 1014.37 1014.51 1014.58 1014.56 1014.44 1014.21 1013.88 1013.48 1013.05 1012.64 1012.32 1012.13 1012.09 1012.23 1012.53 1012.97 1013.50 1014.08 1014.66 1015.21 1015.73 1016.21 1016.66 1017.10 1017.55 1018.02 1018.50 1018.98 1019.45 1019.88 1020.26 1020.58 1020.82 1021.01 1021.15 1021.26 1021.37 1021.46 1021.56 1021.65 1021.72
1014.11 1014.29 1014.42 1014.51 1014.54 1014.51 1014.40 1014.21 1013.94 1013.61 1013.23 1012.84 1012.49 1012.21 1012.03 1011.99 1012.10 1012.34 1012.70 1013.15 1013.66 1014.19 1014.73 1015.26 1015.79 1016.32 1016.86 1017.41 1017.98 1018.57 1019.15 1019.70 1020.21 1020.66 1021.04 1021.34 1021.57 1021.75 1021.90 1022.02 1022.13 1022.23 1022.31 1022.37
1014.37 1014.50 1014.57 1014.57 1014.51 1014.39 1014.20 1013.96 1013.67 1013.34 1012.99 1012.65 1012.35 1012.11 1011.97 1011.93 1012.00 1012.19 1012.48 1012.84 1013.28 1013.75 1014.25 1014.78 1015.33 1015.91 1016.52 1017.16 1017.82 1018.49 1019.16 1019.79 1020.37 1020.89 1021.31 1021.66 1021.94 1022.15 1022.32 1022.45 1022.57 1022.67 1022.74 1022.79
1014.53 1014.62 1014.63 1014.56 1014.43 1014.24 1014.01 1013.73 1013.44 1013.13 1012.82 1012.54 1012.29 1012.10 1011.98 1011.94 1011.99 1012.13 1012.34 1012.62 1012.97 1013.37 1013.82 1014.32 1014.87 1015.47 1016.12 1016.82 1017.55 1018.29 1019.02 1019.72 1020.35 1020.91 1021.39 1021.77 1022.08 1022.31 1022.50 1022.64 1022.76 1022.86 1022.93 1022.99
1014.57 1014.63 1014.60 1014.50 1014.33 1014.11 1013.86 1013.59 1013.31 1013.04 1012.78 1012.55 1012.36 1012.21 1012.11 1012.08 1012.10 1012.18 1012.32 1012.52 1012.79 1013.11 1013.50 1013.95 1014.48 1015.08 1015.74 1016.47 1017.23 1018.01 1018.78 1019.51 1020.19 1020.78 1021.29 1021.70 1022.02 1022.28 1022.47 1022.62 1022.75 1022.85 1022.94 1023.01
1014.50 1014.54 1014.51 1014.40 1014.24 1014.04 1013.80 1013.56 1013.33 1013.10 1012.90 1012.72 1012.57 1012.46 1012.38 1012.34 1012.33 1012.37 1012.45 1012.57 1012.76 1013.01 1013.33 1013.73 1014.22 1014.80 1015.45 1016.17 1016.94 1017.73 1018.52 1019.27 1019.96 1020.57 1021.09 1021.51 1021.85 1022.12 1022.32 1022.48 1022.62 1022.74 1022.84 1022.94
1014.32 1014.37 1014.36 1014.29 1014.17 1014.01 1013.83 1013.65 1013.47 1013.30 1013.16 1013.03 1012.92 1012.84 1012.77 1012.72 1012.69 1012.69 1012.71 1012.78 1012.90 1013.09 1013.36 1013.71 1014.16 1014.70 1015.33 1016.03 1016.78 1017.56 1018.33 1019.07 1019.76 1020.37 1020.89 1021.31 1021.66 1021.93 1022.14 1022.32 1022.47 1022.60 1022.73 1022.86
1014.04 1014.13 1014.16 1014.15 1014.10 1014.02 1013.92 1013.81 1013.71 1013.61 1013.51 1013.43 1013.36 1013.30 1013.24 1013.19 1013.14 1013.11 1013.11 1013.14 1013.22 1013.37 1013.59 1013.91 1014.32 1014.83 1015.42 1016.09 1016.81 1017.55 1018.29 1019.01 1019.67 1020.25 1020.76 1021.18 1021.52 1021.79 1022.02 1022.20 1022.36 1022.51 1022.66 1022.81
1013.71 1013.84 1013.94 1014.01 1014.05 1014.06 1014.04 1014.02 1013.99 1013.95 1013.91 1013.88 1013.84 1013.80 1013.75 1013.70 1013.66 1013.62 1013.61 1013.62 1013.69 1013.82 1014.03 1014.32 1014.71 1015.18 1015.74 1016.37 1017.04 1017.74 1018.43 1019.10 1019.72 1020.27 1020.75 1021.15 1021.48 1021.75 1021.97 1022.16 1022.32 1022.48 1022.65 1022.81
1013.37 1013.55 1013.72 1013.87 1013.99 1014.09 1014.17 1014.23 1014.27 1014.30 1014.31 1014.31 1014.30 1014.29 1014.26 1014.23 1014.20 1014.18 1014.18 1014.21 1014.29 1014.42 1014.63 1014.92 1015.29 1015.74 1016.26 1016.84 1017.46 1018.10 1018.74 1019.35 1019.91 1020.41 1020.85 1021.23 1021.53 1021.78 1021.99 1022.17 1022.34 1022.49 1022.66 1022.82
1013.07 1013.30 1013.53 1013.75 1013.96 1014.14 1014.30 1014.43 1014.54 1014.62 1014.68 1014.72 1014.74 1014.75 1014.75 1014.75 1014.75 1014.76 1014.80 1014.86 1014.97 1015.13 1015.35 1015.64 1016.00 1016.43 1016.91 1017.44 1018.00 1018.57 1019.14 1019.68 1020.18 1020.62 1021.02 1021.34 1021.62 1021.85 1022.03 1022.19 1022.34 1022.48 1022.62 1022.77
1012.86 1013.13 1013.42 1013.71 1013.99 1014.24 1014.46 1014.65 1014.81 1014.93 1015.03 1015.11 1015.16 1015.21 1015.24 1015.28 1015.32 1015.37 1015.45 1015.55 1015.70 1015.89 1016.13 1016.42 1016.77 1017.17 1017.61 1018.08 1018.57 1019.07 1019.55 1020.02 1020.45 1020.83 1021.16 1021.44 1021.68 1021.87 1022.02 1022.15 1022.27 1022.38 1022.49 1022.60
1012.78 1013.09 1013.43 1013.78 1014.11 1014.42 1014.69 1014.93 1015.13 1015.29 1015.42 1015.52 1015.61 1015.68 1015.75 1015.83 1015.91 1016.01 1016.13 1016.27 1016.45 1016.66 1016.91 1017.20 1017.52 1017.88 1018.27 1018.68 1019.09 1019.51 1019.92 1020.30 1020.66 1020.97 1021.24 1021.47 1021.66 1021.81 1021.92 1022.02 1022.09 1022.16 1022.22 1022.28
1012.83 1013.19 1013.57 1013.97 1014.35 1014.71 1015.02 1015.30 1015.53 1015.72 1015.87 1016.00 1016.11 1016.21 1016.32 1016.42 1016.54 1016.68 1016.83 1017.00 1017.20 1017.42 1017.66 1017.93 1018.22 1018.53 1018.86 1019.19 1019.53 1019.86 1020.19 1020.49 1020.77 1021.02 1021.23 1021.41 1021.54 1021.65 1021.72 1021.77 1021.81 1021.83 1021.84 1021.85
1012.98 1013.39 1013.84 1014.29 1014.72 1015.12 1015.48 1015.78 1016.03 1016.24 1016.41 1016.56 1016.69 1016.81 1016.94 1017.07 1017.22 1017.37 1017.55 1017.73 1017.93 1018.15 1018.37 1018.60 1018.85 1019.10 1019.35 1019.61 1019.86 1020.12 1020.36 1020.59 1020.80 1020.98 1021.14 1021.26 1021.35 1021.42 1021.45 1021.46 1021.45 1021.43 1021.40 1021.36
1013.19 1013.68 1014.20 1014.71 1015.20 1015.64 1016.03 1016.36 1016.63 1016.85 1017.04 1017.20 1017.34 1017.47 1017.61 1017.76 1017.92 1018.09 1018.27 1018.45 1018.64 1018.83 1019.02 1019.21 1019.40 1019.58 1019.76 1019.94 1020.12 1020.29 1020.46 1020.62 1020.76 1020.89 1021.00 1021.08 1021.14 1021.16 1021.17 1021.14 1021.10 1021.03 1020.96 1020.88
1013.42 1014.00 1014.60 1015.18 1015.73 1016.21 1016.63 1016.99 1017.27 1017.51 1017.70 1017.86 1018.01 1018.15 1018.29 1018.45 1018.61 1018.78 1018.96 1019.13 1019.30 1019.47 1019.62 1019.75 1019.88 1020.00 1020.11 1020.21 1020.32 1020.42 1020.52 1020.62 1020.71 1020.80 1020.86 1020.91 1020.94 1020.94 1020.92 1020.87 1020.80 1020.71 1020.60 1020.48
1013.63 1014.31 1014.99 1015.64 1016.24 1016.77 1017.22 1017.59 1017.89 1018.13 1018.32 1018.49 1018.63 1018.78 1018.92 1019.08 1019.25 1019.42 1019.58 1019.75 1019.90 1020.03 1020.14 1020.23 1020.30 1020.36 1020.41 1020.45 1020.49 1020.53 1020.58 1020.63 1020.68 1020.73 1020.77 1020.80 1020.81 1020.79 1020.76 1020.69 1020.60 1020.49 1020.35 1020.20
1013.82 1014.58 1015.34 1016.05 1016.70 1017.26 1017.73 1018.12 1018.42 1018.66 1018.85 1019.01 1019.15 1019.30 1019.45 1019.61 1019.77 1019.94 1020.11 1020.26 1020.40 1020.50 1020.58 1020.64 1020.67 1020.68 1020.67 1020.66 1020.65 1020.64 1020.64 1020.66 1020.68 1020.70 1020.72 1020.74 1020.74 1020.72 1020.67 1020.60 1020.50 1020.37 1020.22 1020.04
1013.99 1014.82 1015.63 1016.39 1017.06 1017.64 1018.12 1018.50 1018.80 1019.04 1019.22 1019.38 1019.53 1019.67 1019.83 1020.00 1020.17 1020.34 1020.51 1020.66 1020.78 1020.88 1020.94 1020.97 1020.96 1020.93 1020.89 1020.84 1020.79 1020.74 1020.71 1020.69 1020.69 1020.70 1020.71 1020.71 1020.71 1020.69 1020.64 1020.57 1020.46 1020.33 1020.15 1019.95
1014.18 1015.05 1015.88 1016.64 1017.32 1017.89 1018.36 1018.74 1019.03 1019.26 1019.44 1019.60 1019.74 1019.90 1020.06 1020.24 1020.42 1020.61 1020.78 1020.94 1021.06 1021.15 1021.20 1021.21 1021.18 1021.13 1021.06 1020.97 1020.89 1020.82 1020.76 1020.72 1020.70 1020.69 1020.69 1020.70 1020.69 1020.67 1020.63 1020.56 1020.45 1020.30 1020.11 1019.88
1014.41 1015.28 1016.10 1016.84 1017.49 1018.04 1018.49 1018.84 1019.12 1019.33 1019.51 1019.67 1019.83 1020.00 1020.18 1020.37 1020.57 1020.76 1020.95 1021.11 1021.24 1021.33 1021.37 1021.37 1021.33 1021.26 1021.17 1021.06 1020.95 1020.86 1020.78 1020.72 1020.68 1020.66 1020.66 1020.65 1020.65 1020.63 1020.59 1020.51 1020.40 1020.24 1020.04 1019.79
1014.69 1015.52 1016.30 1017.00 1017.60 1018.11 1018.52 1018.85 1019.10 1019.32 1019.50 1019.66 1019.84 1020.02 1020.22 1020.43 1020.64 1020.86 1021.05 1021.22 1021.35 1021.44 1021.48 1021.48 1021.43 1021.34 1021.23 1021.11 1020.99 1020.87 1020.78 1020.70 1020.64 1020.61 1020.59 1020.58 1020.57 1020.55 1020.50 1020.42 1020.30 1020.13 1019.90 1019.63
1015.01 1015.78 1016.49 1017.13 1017.67 1018.12 1018.50 1018.80 1019.05 1019.26 1019.44 1019.63 1019.82 1020.03 1020.25 1020.48 1020.71 1020.93 1021.14 1021.31 1021.45 1021.53 1021.57 1021.56 1021.50 1021.41 1021.29 1021.16 1021.02 1020.89 1020.78 1020.68 1020.61 1020.56 1020.52 1020.50 1020.47 1020.43 1020.37 1020.28 1020.14 1019.96 1019.71 1019.41
1015.32 1016.02 1016.66 1017.22 1017.71 1018.11 1018.45 1018.74 1018.98 1019.20 1019.41 1019.62 1019.84 1020.07 1020.32 1020.56 1020.81 1021.04 1021.25 1021.43 1021.55 1021.64 1021.67 1021.65 1021.59 1021.49 1021.37 1021.23 1021.08 1020.94 1020.82 1020.70 1020.61 1020.54 1020.48 1020.42 1020.37 1020.31 1020.22 1020.11 1019.95 1019.74 1019.47 1019.14
1015.59 1016.22 1016.78 1017.28 1017.71 1018.08 1018.40 1018.68 1018.94 1019.18 1019.42 1019.66 1019.92 1020.18 1020.45 1020.72 1020.97 1021.21 1021.42 1021.59 1021.71 1021.78 1021.81 1021.79 1021.72 1021.63 1021.50 1021.36 1021.21 1021.06 1020.92 1020.79 1020.67 1020.57 1020.47 1020.38 1020.29 1020.19 1020.07 1019.92 1019.74 1019.50 1019.21 1018.86
Thickness
5722 5727 5728 5726 5727 5730 5726 5725 5717 5721 5724 5731 5738 5741 5741 5740 5737 5733 5731 5728 5725 5722 5719 5718 5717 5715 5713 5711 5710 5708 5705 5702 5699 5698 5697 5696 5695 5694 5693 5692 5691 5690 5688 5686
5719 5728 5729 5725 5730 5732 5731 5732 5729 5728 5727 5744 5745 5745 5741 5738 5735 5730 5729 5727 5725 5723 5719 5717 5715 5712 5710 5708 5706 5704 5701 5697 5696 5694 5692 5690 5689 5688 5687 5686 5685 5684 5682 5680
5709 5724 5723 5715 5731 5733 5733 5738 5735 5725 5732 5744 5740 5740 5739 5737 5733 5730 5728 5727 5725 5723 5721 5718 5716 5712 5708 5706 5704 5701 5697 5694 5691 5689 5686 5685 5684 5683 5681 5680 5679 5677 5675 5673
5708 5710 5694 5725 5750 5747 5739 5740 5744 5742 5743 5744 5743 5743 5743 5741 5735 5730 5728 5726 5725 5723 5721 5719 5716 5712 5708 5705 5701 5697 5693 5690 5687 5684 5681 5680 5678 5676 5676 5674 5672 5670 5669 5667
5704 5699 5707 5729 5744 5746 5736 5732 5747 5745 5744 5745 5746 5740 5735 5739 5737 5733 5729 5727 5725 5724 5721 5718 5714 5710 5706 5701 5698 5694 5689 5686 5683 5680 5677 5674 5672 5670 5670 5669 5666 5665 5663 5661
5703 5694 5695 5722 5745 5753 5740 5722 5745 5746 5741 5741 5738 5720 5722 5735 5735 5731 5728 5725 5723 5721 5719 5714 5711 5708 5702 5697 5693 5689 5686 5683 5680 5676 5672 5669 5666 5665 5664 5662 5660 5658 5656 5655
5698 5697 5709 5733 5744 5743 5713 5717 5742 5744 5741 5737 5731 5730 5732 5735 5730 5727 5724 5722 5719 5716 5712 5709 5707 5704 5698 5693 5689 5686 5683 5679 5675 5671 5668 5665 5662 5660 5658 5656 5653 5651 5649 5647
5703 5695 5700 5733 5735 5726 5725 5740 5741 5740 5739 5735 5732 5732 5731 5728 5724 5721 5717 5715 5713 5709 5705 5704 5702 5698 5692 5687 5685 5682 5678 5674 5670 5666 5664 5661 5656 5653 5651 5648 5645 5642 5640 5638
5711 5708 5722 5733 5732 5735 5739 5735 5735 5734 5734 5731 5727 5724 5722 5720 5717 5714 5711 5708 5706 5702 5698 5696 5694 5691 5684 5681 5680 5676 5671 5667 5664 5661 5658 5655 5650 5646 5643 5640 5636 5633 5631 5627
5712 5715 5722 5727 5730 5732 5734 5732 5733 5732 5729 5726 5721 5719 5716 5714 5710 5707 5705 5701 5699 5695 5691 5687 5686 5684 5680 5676 5674 5670 5665 5661 5658 5654 5650 5647 5642 5639 5635 5631 5627 5624 5621 5617
5706 5712 5715 5719 5723 5725 5726 5728 5726 5725 5723 5720 5716 5713 5710 5707 5705 5702 5698 5695 5692 5688 5684 5682 5680 5677 5674 5670 5667 5661 5657 5654 5650 5646 5642 5637 5633 5629 5626 5622 5618 5614 5610 5607
5701 5711 5710 5711 5719 5722 5719 5718 5718 5717 5714 5714 5711 5707 5705 5701 5699 5696 5692 5689 5685 5682 5679 5676 5673 5670 5667 5663 5659 5655 5650 5645 5641 5636 5632 5628 5623 5619 5616 5613 5609 5605 5601 5597
5712 5715 5713 5713 5714 5715 5713 5713 5713 5711 5708 5706 5705 5703 5699 5695 5693 5690 5686 5683 5679 5676 5673 5670 5666 5662 5659 5656 5652 5646 5641 5636 5632 5627 5623 5618 5614 5609 5605 5602 5599 5595 5592 5588
5708 5706 5701 5703 5703 5707 5707 5706 5706 5704 5703 5701 5699 5696 5693 5689 5685 5682 5679 5677 5674 5670 5666 5663 5658 5654 5651 5647 5642 5637 5632 5627 5622 5617 5613 5608 5605 5601 5596 5592 5588 5585 5582 5578
5698 5698 5696 5697 5698 5698 5698 5698 5695 5693 5693 5691 5691 5688 5685 5681 5677 5675 5673 5670 5667 5662 5658 5654 5649 5645 5643 5638 5632 5627 5621 5616 5612 5607 5603 5599 5595 5591 5587 5583 5578 5575 5571 5567
5689 5689 5688 5687 5687 5688 5688 5687 5685 5684 5684 5682 5681 5679 5677 5674 5670 5667 5665 5662 5657 5652 5649 5645 5640 5637 5633 5627 5622 5616 5610 5606 5601 5596 5592 5588 5584 5579 5575 5571 5567 5563 5559 5554
5677 5675 5676 5676 5677 5679 5680 5680 5678 5677 5676 5674 5672 5671 5668 5664 5660 5657 5655 5652 5648 5644 5640 5635 5630 5627 5622 5617 5611 5605 5600 5595 5591 5586 5581 5577 5573 5568 5564 5560 5555 5551 5547 5543
5675 5674 5674 5673 5672 5671 5671 5672 5671 5669 5667 5666 5664 5661 5658 5654 5650 5647 5645 5642 5637 5633 5629 5625 5620 5616 5611 5605 5599 5594 5589 5584 5579 5575 5570 5566 5562 5557 5553 5548 5544 5540 5536 5532
5668 5667 5667 5666 5666 5665 5664 5663 5662 5661 5659 5657 5653 5650 5647 5644 5641 5638 5635 5630 5625 5619 5616 5613 5608 5603 5598 5593 5587 5582 5577 5573 5568 5563 5559 5555 5550 5545 5541 5537 5533 5529 5525 5520
5659 5659 5658 5657 5657 5656 5655 5654 5653 5651 5649 5646 5643 5639 5636 5633 5631 5627 5623 5618 5614 5610 5606 5601 5596 5591 5586 5580 5575 5570 5565 5561 5556 5551 5547 5542 5537 5533 5529 5525 5521 5517 5513 5508
5648 5647 5646 5646 5645 5646 5645 5644 5642 5639 5637 5635 5632 5629 5626 5623 5620 5616 5610 5604 5602 5598 5594 5589 5584 5578 5573 5568 5563 5558 5553 5548 5544 5539 5534 5530 5525 5521 5517 5513 5508 5504 5500 5495
5637 5637 5636 5635 5635 5634 5634 5633 5631 5628 5625 5623 5620 5617 5614 5610 5607 5602 5598 5593 5590 5585 5580 5575 5570 5565 5560 5555 5550 5545 5540 5536 5531 5526 5521 5517 5512 5508 5504 5500 5495 5491 5486 5482
5627 5627 5626 5625 5625 5624 5623 5622 5619 5616 5613 5611 5608 5605 5601 5597 5594 5589 5584 5581 5577 5572 5567 5562 5557 5552 5547 5542 5537 5533 5528 5524 5519 5514 5510 5505 5501 5497 5492 5488 5483 5478 5474 5469
5617 5616 5616 5615 5614 5611 5609 5608 5606 5604 5601 5598 5596 5593 5589 5584 5580 5577 5572 5568 5564 5559 5553 5548 5543 5539 5534 5529 5525 5521 5516 5512 5507 5503 5498 5494 5489 5485 5480 5476 5471 5467 5462 5457
5606 5605 5604 5603 5601 5599 5598 5596 5594 5591 5588 5585 5582 5580 5576 5573 5568 5563 5558 5553 5549 5544 5539 5535 5531 5526 5521 5517 5513 5509 5505 5500 5495 5491 5486 5482 5477 5473 5469 5464 5459 5455 5450 5446
5594 5593 5592 5591 5590 5587 5586 5584 5581 5579 5576 5572 5569 5566 5562 5558 5554 5549 5544 5539 5535 5530 5526 5521 5517 5513 5509 5505 5501 5497 5493 5488 5483 5479 5475 5470 5466 5461 5457 5452 5448 5443 5438 5434
5582 5581 5579 5578 5577 5576 5574 5572 5569 5567 5565 5561 5557 5553 5549 5545 5540 5535 5531 5526 5522 5517 5513 5509 5505 5501 5498 5494 5489 5485 5481 5477 5472 5467 5463 5459 5454 5450 5445 5441 5436 5432 5427 5424